Regional Weather Roundup
Issued by NWS Nashville, TN

Home | Current Version | Previous Version | Text Only | Print | Product List | Glossary On
Versions: 1 2 3 4 5 6 7 8 9 10 11 12 13 14 15 16 17 18 19 20 21 22 23 24 25 26 27 28 29 30 31 32 33 34 35 36 37 38 39 40 41 42 43 44 45 46 47 48 49 50
000
ASUS44 KOHX 031710
RWROHX
MIDDLE TENNESSEE HOURLY WEATHER ROUNDUP
NATIONAL WEATHER SERVICE NASHVILLE TN
1200 PM CDT FRI JUL 03 2015

NOTE: "FAIR" INDICATES FEW OR NO CLOUDS BELOW 12,000 FEET WITH
NO SIGNIFICANT WEATHER AND/OR OBSTRUCTIONS TO VISIBILITY.

* THESE REPORTS ARE NOT UNDER NWS QUALITY CONTROL AND MAY NOT
  REPORT WEATHER SUCH AS PRECIPITATION AND FOG.


TNZ005>011-023>034-057-059-062>066-078-080-031800
...NORTHERN MIDDLE TENNESSEE...

CITY           SKY/WX    TMP DP  RH WIND       PRES   REMARKS
CLARKSVILLE    CLOUDY    77  70  79 W10       29.89F
CROSSVILLE     CLOUDY    74  65  73 SW9G22    29.98S
GALLATIN       CLOUDY    76  32  20 VRB5      29.92
DICKSON        MOSUNNY   79  70  73 CALM      29.92F
LIVINGSTON     CLOUDY    75  69  81 W7        29.94
NASHVILLE      PTSUNNY   82  71  69 W5        29.91F
PORTLAND         N/A    N/A N/A N/A SW3       29.90F
ROCKWOOD       CLOUDY    74  68  81 W8        29.97S
SMYRNA         CLOUDY    79  71  76 W10       29.92F
SPARTA           N/A     81  72  74 W7        29.93S
$$
TNZ056-058-060-061-075>077-079-093>097-031800
...SOUTHERN MIDDLE TENNESSEE...

CITY           SKY/WX    TMP DP  RH WIND       PRES   REMARKS
COLUMBIA       CLOUDY    75  73  94 SW12      29.93R
MCMINNVILLE    CLOUDY    72  72 100 SW6       29.96S
SHELBYVILLE    CLOUDY    73  73 100 SW5         N/A
TULLAHOMA      CLOUDY    72  70  94 SW9       29.97S
WINCHESTER     CLOUDY    72  70  94 SW6       29.98S
$$


...KEY TO REMARKS...
VSB - VISIBILITY IN MILES
WCI - WIND CHILL INDEX
HX  - HEAT INDEX



USA.gov is the U.S. government's official web portal to all federal, state and local government web resources and services.